Miscellaneous Local Product
Issued by NWS Hastings, NE

Home | Current Version | Previous Version | Text Only | Print | Product List | Glossary Off
Versions: 1 2 3 4 5 6 7 8 9 10 11 12 13 14 15 16 17 18 19 20 21 22 23 24 25 26 27 28 29 30 31 32 33 34 35 36 37 38 39 40 41 42 43 44 45 46 47 48 49 50

000
AXUS43 KGID 100402
MISGRI

GID CWA HOURLY WEATHER ROUNDUP
NATIONAL WEATHER SERVICE HASTINGS NE
1000 PM CST SAT DEC 09 2017

NOTE: "FAIR" INDICATES FEW OR NO CLOUDS BELOW 12,000 FEET WITH NO
SIGNIFICANT WEATHER AND/OR OBSTRUCTIONS TO VISIBILITY.

...SOUTH CENTRAL NEBRASKA...

CITY           SKY/WX    TMP DP  RH WIND       PRES   REMARKS
GRAND ISLAND   CLOUDY    36  19  50 W15       30.10F WCI  27
KEARNEY        CLEAR     45  14  28 W16       30.13F
HASTINGS       CLOUDY    31  16  54 W10       30.12F WCI  22
ORD            CLOUDY    29  18  63 NW5       30.08F WCI  24
YORK           CLOUDY    30  21  69 SW12      30.08F WCI  21
AURORA         CLOUDY    29  18  63 SW10      30.09F WCI  20
LEXINGTON      CLOUDY    28  14  55 NW7       30.17S WCI  21
HOLDREGE       CLEAR     40  17  38 W12       30.15S WCI  33
HEBRON         CLOUDY    35  23  62 W6        30.13F WCI  30

...NEBRASKA PANHANDLE...

CITY           SKY/WX    TMP DP  RH WIND       PRES   REMARKS
CHADRON        CLEAR     37  17  44 W15       30.26R WCI  28
ALLIANCE       NOT AVBL
SCOTTSBLUFF    CLEAR     30  12  47 NW6       30.33R WCI  24
SIDNEY         CLOUDY    36  11  35 W15       30.31S WCI  27

...WESTERN AND NORTH CENTRAL NEBRASKA...

CITY           SKY/WX    TMP DP  RH WIND       PRES   REMARKS
VALENTINE      CLOUDY    34  20  56 W8        30.11S WCI  27
AINSWORTH      CLEAR     37  22  54 W10       30.09S WCI  30
ONEILL         CLOUDY    38  24  57 W12       30.04S WCI  30
BROKEN BOW     CLEAR     44  14  29 NW18      30.12S
IMPERIAL       CLEAR     38  11  32 W12       30.25S WCI  30
NORTH PLATTE   CLEAR     29  16  58 NW9       30.20R WCI  20
MCCOOK         CLEAR     39  12  33 W12       30.21R WCI  32

...EASTERN NEBRASKA...

CITY           SKY/WX    TMP DP  RH WIND       PRES   REMARKS
NORFOLK        CLOUDY    34  22  61 W9        30.01F WCI  27
SO SIOUX CITY  CLOUDY    19  15  84 E6        30.00F WCI  11
TEKAMAH        CLOUDY    19  12  74 SE8       30.05F WCI   9
COLUMBUS       CLOUDY    30  22  72 SW7       30.06F WCI  23
ALBION         CLOUDY    37  20  50 W6        30.05F WCI  33
OMAHA EPPLEY   NOT AVBL
OFFUTT AFB     CLOUDY    25  18  74 S7        30.07F WCI  17
MILLARD        CLOUDY    27  21  77 CALM      30.08F
LINCOLN        CLOUDY    26  19  74 S5        30.11F WCI  20
NEBRASKA CITY  CLOUDY    28  21  76 SW13      30.10F WCI  17
BEATRICE       CLOUDY    29  20  69 SW7       30.12F WCI  22
FALLS CITY     CLOUDY    25  17  72 S8        30.13F WCI  16

...NORTHERN KANSAS...

CITY           SKY/WX    TMP DP  RH WIND       PRES   REMARKS
GOODLAND       NOT AVBL
HILL CITY      CLEAR     36  15  42 W10       30.22R WCI  28
NORTON         CLEAR     28  10  47 SW7       30.19S WCI  21
PHILLIPSBURG   CLEAR     36  16  44 W7        30.19R WCI  30
SMITH CENTER   CLEAR     28  16  59 SW5       30.18S WCI  23
HAYS           CLEAR     35  15  44 W10       30.22F WCI  27
RUSSELL        CLOUDY    31  17  56 SW10      30.19F WCI  22
CONCORDIA      CLOUDY    38  22  52 SW12      30.15F WCI  30
SALINA         CLOUDY    31  21  66 SW12      30.20F WCI  22
TOPEKA         CLOUDY    25  18  74 CALM      30.19F



USA.gov is the U.S. government's official web portal to all federal, state and local government web resources and services.